Time,TemperatureF,DewpointF,PressureIn,WindDirection,WindDirectionDegrees,WindSpeedMPH,WindSpeedGustMPH,Humidity,HourlyPrecipIn,Conditions,Clouds,dailyrainin,SoftwareType,DateUTC
2013-02-04 00:05:00,158.0,0.0,30.09,NNW,329,6.0,8.0,0,0.00,,---,0.00,VWS V14.00,2013-02-04 06:05:00,
2013-02-04 00:15:00,158.0,0.0,30.09,NNW,335,6.0,9.0,0,0.00,,---,0.00,VWS V14.00,2013-02-04 06:15:00,
2013-02-04 00:25:00,158.0,0.0,30.08,NNW,333,7.0,9.0,0,0.00,,---,0.00,VWS V14.00,2013-02-04 06:25:00,
2013-02-04 00:35:00,158.0,0.0,30.08,NNW,348,8.0,10.0,0,0.00,,---,0.00,VWS V14.00,2013-02-04 06:35:00,
2013-02-04 00:45:00,158.0,0.0,30.08,NNW,339,10.0,10.0,0,0.00,,---,0.00,VWS V14.00,2013-02-04 06:45:00,
2013-02-04 00:55:00,158.0,0.0,30.08,NNW,344,10.0,11.0,0,0.00,,---,0.00,VWS V14.00,2013-02-04 06:55:00,
2013-02-04 01:05:00,158.0,0.0,30.08,North,351,7.0,11.0,0,0.00,,---,0.00,VWS V14.00,2013-02-04 07:05:00,
2013-02-04 01:15:00,158.0,0.0,30.08,NNW,348,11.0,11.0,0,0.00,,---,0.00,VWS V14.00,2013-02-04 07:15:00,
2013-02-04 01:25:00,158.0,0.0,30.07,North,350,8.0,11.0,0,0.00,,---,0.00,VWS V14.00,2013-02-04 07:25:00,
2013-02-04 01:35:00,158.0,0.0,30.07,North,5,9.0,11.0,0,0.00,,---,0.00,VWS V14.00,2013-02-04 07:35:00,
2013-02-04 01:45:00,158.0,0.0,30.07,North,5,9.0,11.0,0,0.00,,---,0.00,VWS V14.00,2013-02-04 07:45:00,
2013-02-04 01:55:00,158.0,0.0,30.07,North,5,7.0,10.0,0,0.00,,---,0.00,VWS V14.00,2013-02-04 07:55:00,
2013-02-04 02:05:00,158.0,0.0,30.07,North,11,5.0,10.0,0,0.00,,---,0.00,VWS V14.00,2013-02-04 08:05:00,
2013-02-04 02:15:00,158.0,0.0,30.06,NNE,24,6.0,10.0,0,0.00,,---,0.00,VWS V14.00,2013-02-04 08:15:00,
2013-02-04 02:25:00,158.0,0.0,30.06,NNE,24,9.0,10.0,0,0.00,,---,0.00,VWS V14.00,2013-02-04 08:25:00,
2013-02-04 02:35:00,158.0,0.0,30.06,NNE,28,6.0,10.0,0,0.00,,---,0.00,VWS V14.00,2013-02-04 08:35:00,
2013-02-04 02:45:00,158.0,0.0,30.06,NNE,26,9.0,11.0,0,0.00,,---,0.00,VWS V14.00,2013-02-04 08:45:00,
2013-02-04 02:55:00,158.0,0.0,30.06,NNE,33,7.0,11.0,0,0.00,,---,0.00,VWS V14.00,2013-02-04 08:55:00,
2013-02-04 03:05:00,158.0,0.0,30.05,NNE,26,5.0,9.0,0,0.00,,---,0.00,VWS V14.00,2013-02-04 09:05:00,
2013-02-04 03:15:00,158.0,0.0,30.05,NNE,24,7.0,11.0,0,0.00,,---,0.00,VWS V14.00,2013-02-04 09:15:00,
2013-02-04 03:25:00,158.0,0.0,30.05,NNE,30,6.0,10.0,0,0.00,,---,0.00,VWS V14.00,2013-02-04 09:25:00,
2013-02-04 03:35:00,158.0,0.0,30.05,NE,54,5.0,9.0,0,0.00,,---,0.00,VWS V14.00,2013-02-04 09:35:00,
2013-02-04 03:45:00,158.0,0.0,30.04,ENE,57,10.0,10.0,0,0.00,,---,0.00,VWS V14.00,2013-02-04 09:45:00,
2013-02-04 03:55:00,158.0,0.0,30.05,NE,51,9.0,13.0,0,0.00,,---,0.00,VWS V14.00,2013-02-04 09:55:00,
2013-02-04 04:05:00,158.0,0.0,30.05,NE,56,12.0,14.0,0,0.00,,---,0.00,VWS V14.00,2013-02-04 10:05:00,
2013-02-04 04:15:00,158.0,0.0,30.05,ENE,57,10.0,14.0,0,0.00,,---,0.00,VWS V14.00,2013-02-04 10:15:00,
2013-02-04 04:25:00,158.0,0.0,30.05,NE,55,12.0,12.0,0,0.00,,---,0.00,VWS V14.00,2013-02-04 10:25:00,
2013-02-04 04:35:00,158.0,0.0,30.05,NE,53,12.0,13.0,0,0.00,,---,0.00,VWS V14.00,2013-02-04 10:35:00,
2013-02-04 04:45:00,158.0,0.0,30.05,NE,54,12.0,13.0,0,0.00,,---,0.00,VWS V14.00,2013-02-04 10:45:00,
2013-02-04 04:55:00,158.0,0.0,30.05,NE,49,11.0,14.0,0,0.00,,---,0.00,VWS V14.00,2013-02-04 10:55:00,
2013-02-04 05:05:00,158.0,0.0,30.05,NE,44,7.0,12.0,0,0.00,,---,0.00,VWS V14.00,2013-02-04 11:05:00,
2013-02-04 05:15:00,158.0,0.0,30.04,NE,55,12.0,13.0,0,0.00,,---,0.00,VWS V14.00,2013-02-04 11:15:00,
2013-02-04 05:25:00,158.0,0.0,30.04,ENE,65,11.0,14.0,0,0.00,,---,0.00,VWS V14.00,2013-02-04 11:25:00,
2013-02-04 05:35:00,158.0,0.0,30.05,ENE,61,10.0,13.0,0,0.00,,---,0.00,VWS V14.00,2013-02-04 11:35:00,
2013-02-04 05:45:00,158.0,0.0,30.05,ENE,67,11.0,13.0,0,0.00,,---,0.00,VWS V14.00,2013-02-04 11:45:00,
2013-02-04 05:55:00,158.0,0.0,30.05,ENE,72,9.0,14.0,0,0.00,,---,0.00,VWS V14.00,2013-02-04 11:55:00,
2013-02-04 06:05:00,158.0,0.0,30.04,ENE,72,12.0,15.0,0,0.00,,---,0.00,VWS V14.00,2013-02-04 12:05:00,
2013-02-04 06:15:00,158.0,0.0,30.04,ENE,66,12.0,14.0,0,0.00,,---,0.00,VWS V14.00,2013-02-04 12:15:00,
2013-02-04 06:25:00,158.0,0.0,30.05,ENE,67,12.0,14.0,0,0.00,,---,0.00,VWS V14.00,2013-02-04 12:25:00,
2013-02-04 06:35:00,158.0,0.0,30.05,ENE,74,10.0,14.0,0,0.00,,---,0.00,VWS V14.00,2013-02-04 12:35:00,
2013-02-04 06:45:00,158.0,0.0,30.06,ENE,66,11.0,14.0,0,0.00,,---,0.00,VWS V14.00,2013-02-04 12:45:00,
2013-02-04 06:55:00,158.0,0.0,30.06,ENE,64,11.0,13.0,0,0.00,,---,0.00,VWS V14.00,2013-02-04 12:55:00,
2013-02-04 07:05:00,158.0,0.0,30.07,ENE,65,13.0,13.0,0,0.00,,---,0.00,VWS V14.00,2013-02-04 13:05:00,
2013-02-04 07:15:00,158.0,0.0,30.06,ENE,70,14.0,16.0,0,0.00,,---,0.00,VWS V14.00,2013-02-04 13:15:00,
2013-02-04 07:25:00,158.0,0.0,30.06,ENE,67,12.0,16.0,0,0.00,,---,0.00,VWS V14.00,2013-02-04 13:25:00,
2013-02-04 07:35:00,158.0,0.0,30.06,ENE,63,14.0,14.0,0,0.00,,---,0.00,VWS V14.00,2013-02-04 13:35:00,
2013-02-04 07:45:00,158.0,0.0,30.06,ENE,66,12.0,15.0,0,0.00,,---,0.00,VWS V14.00,2013-02-04 13:45:00,
2013-02-04 07:55:00,158.0,0.0,30.06,ENE,75,15.0,17.0,0,0.00,,---,0.00,VWS V14.00,2013-02-04 13:55:00,
2013-02-04 08:05:00,158.0,0.0,30.05,ENE,78,14.0,17.0,0,0.00,,---,0.00,VWS V14.00,2013-02-04 14:05:00,
2013-02-04 08:15:00,158.0,0.0,30.05,East,81,12.0,16.0,0,0.00,,---,0.00,VWS V14.00,2013-02-04 14:15:00,
2013-02-04 08:25:00,158.0,0.0,30.06,ENE,74,12.0,15.0,0,0.00,,---,0.00,VWS V14.00,2013-02-04 14:25:00,
2013-02-04 08:35:00,158.0,0.0,30.07,ENE,64,9.0,13.0,0,0.00,,---,0.00,VWS V14.00,2013-02-04 14:35:00,
2013-02-04 08:45:00,158.0,0.0,30.07,ENE,69,10.0,12.0,0,0.00,,---,0.00,VWS V14.00,2013-02-04 14:45:00,
2013-02-04 08:55:00,158.0,0.0,30.08,ENE,66,10.0,12.0,0,0.00,,---,0.00,VWS V14.00,2013-02-04 14:55:00,
2013-02-04 09:05:00,158.0,0.0,30.08,ENE,78,11.0,12.0,0,0.00,,---,0.00,VWS V14.00,2013-02-04 15:05:00,
2013-02-04 09:15:00,158.0,0.0,30.07,ENE,78,10.0,12.0,0,0.00,,---,0.00,VWS V14.00,2013-02-04 15:15:00,
2013-02-04 09:25:00,158.0,0.0,30.07,ENE,76,12.0,13.0,0,0.00,,---,0.00,VWS V14.00,2013-02-04 15:25:00,
2013-02-04 09:35:00,158.0,0.0,30.07,ENE,74,10.0,13.0,0,0.00,,---,0.00,VWS V14.00,2013-02-04 15:35:00,
2013-02-04 09:45:00,158.0,0.0,30.08,East,82,9.0,12.0,0,0.00,,---,0.00,VWS V14.00,2013-02-04 15:45:00,
2013-02-04 09:55:00,158.0,0.0,30.08,East,85,6.0,10.0,0,0.00,,---,0.00,VWS V14.00,2013-02-04 15:55:00,
2013-02-04 10:05:00,158.0,0.0,30.08,ENE,76,5.0,8.0,0,0.00,,---,0.00,VWS V14.00,2013-02-04 16:05:00,
2013-02-04 10:15:00,158.0,0.0,30.08,ENE,76,5.0,8.0,0,0.00,,---,0.00,VWS V14.00,2013-02-04 16:15:00,
2013-02-04 10:25:00,158.0,0.0,30.08,ENE,75,3.0,6.0,0,0.00,,---,0.00,VWS V14.00,2013-02-04 16:25:00,
2013-02-04 10:35:00,158.0,0.0,30.08,ENE,75,3.0,6.0,0,0.00,,---,0.00,VWS V14.00,2013-02-04 16:35:00,
2013-02-04 10:45:00,158.0,0.0,30.07,ENE,75,0.0,4.0,0,0.00,,---,0.00,VWS V14.00,2013-02-04 16:45:00,
2013-02-04 10:55:00,158.0,0.0,30.07,ENE,75,0.0,0.0,0,0.00,,---,0.00,VWS V14.00,2013-02-04 16:55:00,
2013-02-04 11:05:00,158.0,0.0,30.08,ENE,75,0.0,0.0,0,0.00,,---,0.00,VWS V14.00,2013-02-04 17:05:00,
2013-02-04 11:15:00,158.0,0.0,30.07,ENE,75,0.0,0.0,0,0.00,,---,0.00,VWS V14.00,2013-02-04 17:15:00,
2013-02-04 11:25:00,158.0,0.0,30.07,NW,312,3.0,4.0,0,0.00,,---,0.00,VWS V14.00,2013-02-04 17:25:00,
2013-02-04 11:35:00,158.0,0.0,30.07,WNW,303,4.0,5.0,0,0.00,,---,0.00,VWS V14.00,2013-02-04 17:35:00,
2013-02-04 11:45:00,158.0,0.0,30.06,WNW,303,4.0,5.0,0,0.00,,---,0.00,VWS V14.00,2013-02-04 17:45:00,
2013-02-04 11:55:00,158.0,0.0,30.05,WNW,303,5.0,6.0,0,0.00,,---,0.00,VWS V14.00,2013-02-04 17:55:00,
2013-02-04 12:05:00,158.0,0.0,30.05,NW,317,4.0,6.0,0,0.00,,---,0.00,VWS V14.00,2013-02-04 18:05:00,
2013-02-04 12:15:00,158.0,0.0,30.05,NW,317,2.0,4.0,0,0.00,,---,0.00,VWS V14.00,2013-02-04 18:15:00,
2013-02-04 12:25:00,158.0,0.0,30.04,NW,317,0.0,4.0,0,0.00,,---,0.00,VWS V14.00,2013-02-04 18:25:00,
2013-02-04 12:35:00,158.0,0.0,30.04,NW,317,0.0,1.0,0,0.00,,---,0.00,VWS V14.00,2013-02-04 18:35:00,
2013-02-04 12:45:00,158.0,0.0,30.02,NW,317,0.0,0.0,0,0.00,,---,0.00,VWS V14.00,2013-02-04 18:45:00,
2013-02-04 12:55:00,158.0,0.0,30.02,NW,317,0.0,0.0,0,0.00,,---,0.00,VWS V14.00,2013-02-04 18:55:00,
2013-02-04 13:05:00,158.0,0.0,30.02,NW,317,0.0,0.0,0,0.00,,---,0.00,VWS V14.00,2013-02-04 19:05:00,
2013-02-04 13:15:00,158.0,0.0,30.02,NW,317,0.0,0.0,0,0.00,,---,0.00,VWS V14.00,2013-02-04 19:15:00,
2013-02-04 13:25:00,158.0,0.0,30.02,NW,317,0.0,0.0,0,0.00,,---,0.00,VWS V14.00,2013-02-04 19:25:00,
2013-02-04 13:35:00,158.0,0.0,30.02,NW,317,0.0,0.0,0,0.00,,---,0.00,VWS V14.00,2013-02-04 19:35:00,
2013-02-04 13:45:00,158.0,0.0,30.01,NW,317,0.0,0.0,0,0.00,,---,0.00,VWS V14.00,2013-02-04 19:45:00,
2013-02-04 13:55:00,158.0,0.0,30.01,NW,317,0.0,0.0,0,0.00,,---,0.00,VWS V14.00,2013-02-04 19:55:00,
2013-02-04 14:05:00,158.0,0.0,30.01,NW,317,0.0,0.0,0,0.00,,---,0.00,VWS V14.00,2013-02-04 20:05:00,
2013-02-04 14:15:00,158.0,0.0,30.00,NW,317,3.0,5.0,0,0.00,,---,0.00,VWS V14.00,2013-02-04 20:15:00,
2013-02-04 14:25:00,158.0,0.0,30.00,NW,317,2.0,3.0,0,0.00,,---,0.00,VWS V14.00,2013-02-04 20:25:00,
2013-02-04 14:35:00,158.0,0.0,30.00,NW,317,2.0,3.0,0,0.00,,---,0.00,VWS V14.00,2013-02-04 20:35:00,
2013-02-04 14:45:00,158.0,0.0,30.00,NW,317,0.0,3.0,0,0.00,,---,0.00,VWS V14.00,2013-02-04 20:45:00,
2013-02-04 14:55:00,158.0,0.0,29.99,NW,317,0.0,0.0,0,0.00,,---,0.00,VWS V14.00,2013-02-04 20:55:00,
2013-02-04 15:05:00,158.0,0.0,30.00,NW,317,0.0,0.0,0,0.00,,---,0.00,VWS V14.00,2013-02-04 21:05:00,
2013-02-04 15:15:00,158.0,0.0,30.00,NW,317,0.0,0.0,0,0.00,,---,0.00,VWS V14.00,2013-02-04 21:15:00,
2013-02-04 15:25:00,158.0,0.0,29.99,NW,317,0.0,0.0,0,0.00,,---,0.00,VWS V14.00,2013-02-04 21:25:00,
2013-02-04 15:35:00,158.0,0.0,29.99,NW,317,0.0,0.0,0,0.00,,---,0.00,VWS V14.00,2013-02-04 21:35:00,
2013-02-04 15:45:00,158.0,0.0,29.98,NW,317,0.0,0.0,0,0.00,,---,0.00,VWS V14.00,2013-02-04 21:45:00,
2013-02-04 15:55:00,158.0,0.0,29.99,NW,317,0.0,0.0,0,0.00,,---,0.00,VWS V14.00,2013-02-04 21:55:00,
2013-02-04 16:05:00,158.0,0.0,29.99,NW,317,0.0,0.0,0,0.00,,---,0.00,VWS V14.00,2013-02-04 22:05:00,
2013-02-04 16:15:00,158.0,0.0,29.98,NW,317,0.0,0.0,0,0.00,,---,0.00,VWS V14.00,2013-02-04 22:15:00,
2013-02-04 16:25:00,158.0,0.0,29.98,NW,317,0.0,0.0,0,0.00,,---,0.00,VWS V14.00,2013-02-04 22:25:00,
2013-02-04 16:35:00,158.0,0.0,29.97,NW,317,0.0,0.0,0,0.00,,---,0.00,VWS V14.00,2013-02-04 22:35:00,
2013-02-04 16:45:00,158.0,0.0,29.97,NW,317,0.0,0.0,0,0.00,,---,0.00,VWS V14.00,2013-02-04 22:45:00,
2013-02-04 16:55:00,158.0,0.0,29.97,NW,317,0.0,0.0,0,0.00,,---,0.00,VWS V14.00,2013-02-04 22:55:00,
2013-02-04 17:05:00,158.0,0.0,29.97,NW,317,0.0,0.0,0,0.00,,---,0.00,VWS V14.00,2013-02-04 23:05:00,
2013-02-04 17:15:00,158.0,0.0,29.97,NW,317,2.0,3.0,0,0.00,,---,0.00,VWS V14.00,2013-02-04 23:15:00,
2013-02-04 17:25:00,158.0,0.0,29.97,NW,317,0.0,2.0,0,0.00,,---,0.00,VWS V14.00,2013-02-04 23:25:00,
2013-02-04 17:35:00,158.0,0.0,29.97,NW,317,0.0,0.0,0,0.00,,---,0.00,VWS V14.00,2013-02-04 23:35:00,
2013-02-04 17:45:00,158.0,0.0,29.98,NW,317,0.0,0.0,0,0.00,,---,0.00,VWS V14.00,2013-02-04 23:45:00,
2013-02-04 17:55:00,158.0,0.0,29.98,NW,317,0.0,0.0,0,0.00,,---,0.00,VWS V14.00,2013-02-04 23:55:00,
2013-02-04 18:05:00,158.0,0.0,29.98,NW,317,0.0,0.0,0,0.00,,---,0.00,VWS V14.00,2013-02-05 00:05:00,
2013-02-04 18:15:00,158.0,0.0,29.97,NW,317,3.0,3.0,0,0.00,,---,0.00,VWS V14.00,2013-02-05 00:15:00,
2013-02-04 18:25:00,158.0,0.0,29.98,NNE,24,4.0,4.0,0,0.00,,---,0.00,VWS V14.00,2013-02-05 00:25:00,
2013-02-04 18:35:00,158.0,0.0,29.98,East,87,4.0,5.0,0,0.00,,---,0.00,VWS V14.00,2013-02-05 00:35:00,
2013-02-04 18:45:00,158.0,0.0,29.98,East,88,5.0,5.0,0,0.00,,---,0.01,VWS V14.00,2013-02-05 00:45:00,
2013-02-04 18:55:00,158.0,0.0,29.97,ESE,102,7.0,9.0,0,0.00,,---,0.01,VWS V14.00,2013-02-05 00:55:00,
2013-02-04 19:05:00,158.0,0.0,29.97,ESE,107,6.0,8.0,0,0.00,,---,0.01,VWS V14.00,2013-02-05 01:05:00,
2013-02-04 19:15:00,158.0,0.0,29.97,ESE,106,10.0,10.0,0,0.00,,---,0.01,VWS V14.00,2013-02-05 01:15:00,
2013-02-04 19:25:00,158.0,0.0,29.97,ESE,111,12.0,12.0,0,0.00,,---,0.01,VWS V14.00,2013-02-05 01:25:00,
2013-02-04 19:35:00,158.0,0.0,29.97,ESE,119,11.0,13.0,0,0.00,,---,0.01,VWS V14.00,2013-02-05 01:35:00,
2013-02-04 19:45:00,158.0,0.0,29.98,ESE,114,9.0,12.0,0,0.00,,---,0.02,VWS V14.00,2013-02-05 01:45:00,
2013-02-04 19:55:00,158.0,0.0,29.98,East,101,9.0,11.0,0,0.00,,---,0.02,VWS V14.00,2013-02-05 01:55:00,
2013-02-04 20:06:00,158.0,0.0,29.97,ESE,102,7.0,10.0,0,0.00,,---,0.02,VWS V14.00,2013-02-05 02:06:00,
2013-02-04 20:15:00,158.0,0.0,29.97,East,97,5.0,7.0,0,0.00,,---,0.02,VWS V14.00,2013-02-05 02:15:00,
2013-02-04 20:25:00,158.0,0.0,29.98,East,96,3.0,6.0,0,0.00,,---,0.02,VWS V14.00,2013-02-05 02:25:00,
2013-02-04 20:35:00,158.0,0.0,29.98,ENE,73,5.0,6.0,0,0.00,,---,0.02,VWS V14.00,2013-02-05 02:35:00,
2013-02-04 20:45:00,158.0,0.0,29.97,ENE,76,4.0,6.0,0,0.00,,---,0.02,VWS V14.00,2013-02-05 02:45:00,
2013-02-04 20:55:00,158.0,0.0,29.97,East,84,5.0,6.0,0,0.00,,---,0.02,VWS V14.00,2013-02-05 02:55:00,
2013-02-04 21:05:00,158.0,0.0,29.97,East,88,6.0,6.0,0,0.00,,---,0.02,VWS V14.00,2013-02-05 03:05:00,
2013-02-04 21:15:00,158.0,0.0,29.97,East,90,6.0,6.0,0,0.00,,---,0.02,VWS V14.00,2013-02-05 03:15:00,
2013-02-04 21:25:00,158.0,0.0,29.97,East,94,4.0,6.0,0,0.00,,---,0.02,VWS V14.00,2013-02-05 03:25:00,
2013-02-04 21:35:00,158.0,0.0,29.97,East,94,3.0,4.0,0,0.00,,---,0.02,VWS V14.00,2013-02-05 03:35:00,
2013-02-04 21:45:00,158.0,0.0,29.97,East,94,3.0,4.0,0,0.00,,---,0.02,VWS V14.00,2013-02-05 03:45:00,
2013-02-04 21:55:00,158.0,0.0,29.97,East,94,3.0,4.0,0,0.00,,---,0.02,VWS V14.00,2013-02-05 03:55:00,
2013-02-04 22:05:00,158.0,0.0,29.96,ENE,71,5.0,5.0,0,0.00,,---,0.02,VWS V14.00,2013-02-05 04:05:00,
2013-02-04 22:16:00,158.0,0.0,29.96,ENE,71,4.0,5.0,0,0.00,,---,0.02,VWS V14.00,2013-02-05 04:16:00,
2013-02-04 22:25:00,158.0,0.0,29.96,ENE,73,4.0,6.0,0,0.00,,---,0.02,VWS V14.00,2013-02-05 04:25:00,
2013-02-04 22:35:00,158.0,0.0,29.95,ENE,73,4.0,5.0,0,0.00,,---,0.02,VWS V14.00,2013-02-05 04:35:00,
2013-02-04 22:46:00,158.0,0.0,29.95,ENE,75,4.0,5.0,0,0.00,,---,0.02,VWS V14.00,2013-02-05 04:46:00,
2013-02-04 22:55:00,158.0,0.0,29.95,East,79,3.0,5.0,0,0.00,,---,0.02,VWS V14.00,2013-02-05 04:55:00,
2013-02-04 23:05:00,158.0,0.0,29.95,East,79,2.0,4.0,0,0.00,,---,0.02,VWS V14.00,2013-02-05 05:05:00,
2013-02-04 23:15:00,158.0,0.0,29.95,East,79,0.0,2.0,0,0.00,,---,0.02,VWS V14.00,2013-02-05 05:15:00,
2013-02-04 23:25:00,158.0,0.0,29.95,East,79,0.0,0.0,0,0.00,,---,0.02,VWS V14.00,2013-02-05 05:25:00,
2013-02-04 23:35:00,158.0,0.0,29.95,East,79,0.0,0.0,0,0.00,,---,0.03,VWS V14.00,2013-02-05 05:35:00,
2013-02-04 23:45:00,158.0,0.0,29.95,East,79,0.0,0.0,0,0.05,,---,0.04,VWS V14.00,2013-02-05 05:45:00,
2013-02-04 23:55:00,158.0,0.0,29.95,East,79,2.0,3.0,0,0.06,,---,0.00,VWS V14.00,2013-02-05 05:55:00,